Lake Hood, AK

4:24 AM AKDT on October 17, 2017 (GMT -0800)
Lake Hood

Weather History for PALH - March, 2014

Change the Weather History Date:

Tuesday, March 4, 2014

  Actual Average Record
Temperature  
Mean Temperature 32 °F -  
Max Temperature 37 °F 29 °F 45 °F (2008)
Min Temperature 28 °F 15 °F 0 °F (2017)
Degree Days  
Heating Degree Days 32    
Moisture  
Dew Point 23 °F    
Average Humidity 65    
Maximum Humidity 85    
Minimum Humidity 53    
Precipitation  
Precipitation 0.00 in - - ()
Sea Level Pressure  
Sea Level Pressure 29.81 in    
Wind  
Wind Speed 6 mph (South)    
Max Wind Speed 15 mph    
Max Gust Speed 26 mph    
Visibility 10 miles    
Events Snow    
Averages and records for this station are not official NWS values.
T = Trace of Precipitation, MM = Missing Value Source: NWS Daily Summary

Daily Weather History Graph

Daily Weather History Graph

Search for Another Location

Airport or City:

Trip Planner

Search our weather history database for the weather conditions in past years. The results will help you decide how hot, cold, wet, or windy it might be!

Date:

Astronomy

Mar. 04, 2014 Rise Set
Actual Time 7:50 AM AKST 6:33 PM AKST
Civil Twilight 7:07 AM AKST 7:16 PM AKST
Nautical Twilight 6:17 AM AKST 8:06 PM AKST
Astronomical Twilight 5:26 AM AKST 8:58 PM AKST
Moon 8:33 AM AKST (3/4) No Moon Set
Length of Visible Light 12h 09m
Length of Day
10h 43m
Waxing Crescent, 16% of the Moon is Illuminated
Mar 4
Waxing Crescent
Mar 8
First Quarter
Mar 16
Full
Mar 23
Last Quarter
Mar 30
New

Hourly Weather History & Observations

Time (AKST) Temp. Windchill Dew Point Humidity Pressure Visibility Wind Dir Wind Speed Gust Speed Precip Events Conditions
12:53 AM 28.9 °F - 24.1 °F 82% 29.86 in 10.0 mi Calm Calm - N/A   Overcast
1:53 AM 28.9 °F - 25.0 °F 85% 29.86 in 10.0 mi Calm Calm - N/A   Overcast
3:53 AM 34.0 °F 28.0 °F 21.0 °F 59% 29.85 in 10.0 mi SSE 6.9 mph - N/A   Overcast
4:53 AM 34.0 °F 28.0 °F 21.0 °F 59% 29.85 in 10.0 mi South 6.9 mph - N/A   Overcast
5:53 AM 35.1 °F 28.6 °F 19.9 °F 54% 29.84 in 10.0 mi SSE 8.1 mph - N/A   Overcast
6:53 AM 28.9 °F 20.4 °F 23.0 °F 78% 29.83 in 10.0 mi North 9.2 mph - N/A   Overcast
7:53 AM 28.9 °F 23.9 °F 21.9 °F 75% 29.84 in 10.0 mi North 4.6 mph - N/A   Overcast
8:53 AM 28.9 °F - 21.9 °F 75% 29.83 in 10.0 mi Calm Calm - N/A   Overcast
9:53 AM 30.0 °F - 21.9 °F 72% 29.83 in 10.0 mi Calm Calm - N/A   Overcast
10:53 AM 30.9 °F 26.2 °F 23.0 °F 72% 29.83 in 10.0 mi North 4.6 mph - N/A   Overcast
11:53 AM 35.1 °F 29.3 °F 23.0 °F 61% 29.83 in 10.0 mi Variable 6.9 mph - N/A   Overcast
12:53 PM 36.0 °F 27.1 °F 21.9 °F 57% 29.83 in 10.0 mi South 13.8 mph 21.9 mph N/A   Overcast
1:53 PM 37.0 °F 29.8 °F 23.0 °F 57% 29.81 in 10.0 mi South 10.4 mph - N/A   Overcast
2:53 PM 37.0 °F 29.3 °F 23.0 °F 57% 29.80 in 10.0 mi South 11.5 mph - 0.00 in   Overcast
3:53 PM 37.9 °F 32.1 °F 21.9 °F 53% 29.79 in 10.0 mi South 8.1 mph - N/A   Overcast
4:53 PM 37.9 °F 30.5 °F 23.0 °F 55% 29.78 in 9.0 mi South 11.5 mph 16.1 mph 0.00 in Snow Light Snow
5:53 PM 37.0 °F 29.8 °F 24.1 °F 59% 29.78 in 10.0 mi South 10.4 mph 17.3 mph 0.00 in   Overcast
6:53 PM 36.0 °F 28.0 °F 25.0 °F 64% 29.77 in 10.0 mi South 11.5 mph 20.7 mph 0.00 in   Overcast
7:53 PM 35.1 °F 25.5 °F 25.0 °F 67% 29.77 in 10.0 mi SSW 15.0 mph 25.3 mph 0.00 in   Overcast
8:53 PM 36.0 °F 26.7 °F 25.0 °F 64% 29.76 in 10.0 mi SSW 15.0 mph 26.5 mph N/A   Overcast
9:53 PM 36.0 °F 28.5 °F 25.0 °F 64% 29.76 in 10.0 mi SSW 10.4 mph 20.7 mph N/A   Overcast
10:53 PM 35.1 °F 29.3 °F 25.0 °F 67% 29.76 in 10.0 mi South 6.9 mph 18.4 mph N/A   Overcast
11:53 PM 36.0 °F 29.0 °F 25.0 °F 64% 29.76 in 10.0 mi South 9.2 mph 20.7 mph 0.00 in   Overcast